Regional Weather Roundup
Issued by NWS

Home | Current Version | Previous Version | Text Only | Print | Product List | Glossary Off
Versions: 1 2 3 4 5 6 7 8 9 10 11 12 13 14 15 16 17 18 19 20 21 22 23 24 25 26 27 28 29 30 31 32 33 34 35 36 37 38 39 40 41 42 43 44 45 46 47 48 49 50

000
ASUS43 KDTX 240301
RWRMI
MICHIGAN HOURLY REGIONAL WEATHER ROUNDUP
NATIONAL WEATHER SERVICE DETROIT/PONTIAC MI
1000 PM EST THU FEB 23 2017

NOTE: "FAIR" INDICATES FEW OR NO CLOUDS BELOW 12,000 FEET WITH NO
SIGNIFICANT WEATHER AND/OR OBSTRUCTION TO VISIBILITY.

MIZ047>049-052>055-059>063-066>070-074>076-081>083-240400-
SOUTHEAST LOWER MICHIGAN

CITY           SKY/WX    TMP DP  RH WIND       PRES   REMARKS
ADRIAN         LGT RAIN  50  42  74 E15       29.80R
ALMA           CLOUDY    40  34  77 N7        29.85F
ANN ARBOR      CLOUDY    46  39  76 NE9       29.81R
BAD AXE        PTCLDY    36  31  82 NE10G16   29.89S WCI  28
CARO           PTCLDY    38  34  87 E5        29.87R WCI  34
DETROIT CITY   CLOUDY    40  36  86 NE10      29.84R WCI  33
DETROIT        CLOUDY    44  36  73 NE15      29.83R
FLINT          MOCLDY    41  36  82 E16       29.84R
GROSSE ILE     CLOUDY    42  37  83 NE12      29.82R
HILLSDALE      LGT RAIN  48  43  81 NE6       29.77S
HOWELL         CLOUDY    46  37  70 NE5       29.81R

CITY           SKY/WX    TMP DP  RH WIND       PRES   REMARKS
JACKSON        LGT RAIN  49  41  74 NE5       29.80R
LAMBERTVILLE   MOCLDY    48  40  75 E12G20    29.80R
LANSING        CLOUDY    44  35  70 NE10      29.82S
LAPEER         MOCLDY    38  34  86 E8        29.86R WCI  32
MASON          CLOUDY    47  41  78 NE9       29.79F
MONROE         CLOUDY    45  39  82 NE12      29.81R
MT. CLEMENS    CLOUDY    39  35  87 NE12      29.83R WCI  31
PONTIAC        MOCLDY    39  34  82 NE10      29.82R WCI  32
PORT HOPE        N/A     37  32  82 N13       29.88R WCI  29
PORT HURON     CLOUDY    37  34  87 NE8       29.85S WCI  31
TRI CITIES     CLOUDY    40  37  89 NE12      29.88R WCI  33
MIDLAND        FAIR      39  32  76 E10       29.88R WCI  32
TROY           CLOUDY    40  34  78 NE9G17    29.85S WCI  34
SAGINAW HB     PTCLDY    41  34  75 NE12      29.86R
$$
MIZ043>046-050>051-056>058-064>065-071>073-077>080-240400-
SOUTHWEST LOWER MICHIGAN

CITY           SKY/WX    TMP DP  RH WIND       PRES   REMARKS
BATTLE CREEK   LGT RAIN  49  42  77 E9        29.79R
BENTON HARBOR  RAIN      42  39  89 NE5       29.73F FOG
BIG RAPIDS     CLOUDY    37  32  82 NE5       29.85S WCI  33
COLDWATER      RAIN      49  47  92 NE6       29.78R
FREMONT        CLOUDY    39  33  77 NE12      29.82F WCI  32
HOLLAND        CLOUDY    45  37  73 NE10      29.78R
GRAND RAPIDS   LGT RAIN  43  35  73 NE13      29.80F
IONIA          CLOUDY    41  34  75 NE10      29.82S
KALAMAZOO      LGT RAIN  48  42  80 E6        29.77S
LUDINGTON      DRIZZLE   34  32  92 NE7       29.85F WCI  28
MARSHALL       LGT RAIN  49  42  79 NE5       29.79R
MOUNT PLEASANT CLOUDY    38  32  77 N7        29.85F WCI  33
MUSKEGON       CLOUDY    42  34  73 NE12      29.82S
SOUTH HAVEN    LGT RAIN  42  40  94 NE7       29.75S
$$
MIZ016>042-240400-
NORTHERN LOWER MICHIGAN

CITY           SKY/WX    TMP DP  RH WIND       PRES   REMARKS
ALPENA         MOCLDY    33  26  75 NW9       29.93R WCI  25
BEAVER ISLAND  CLOUDY    29  26  88 CALM      29.95S
BELLAIRE       CLOUDY    33  27  79 N7        29.93S WCI  27
CADILLAC       LGT SNOW  32  30  92 N6        29.85F WCI  26
CHARLEVOIX     CLOUDY    33  25  73 NE6       29.97S WCI  27
FRANKFORT      CLOUDY    36  29  76 NE6       29.90S WCI  31
GAYLORD        CLOUDY    33  24  69 NE9       29.89S WCI  25
GRAYLING       CLOUDY    34  29  81 N5        29.89F WCI  30
HARBOR SPRINGS CLOUDY    32  23  69 CALM      29.94S
HOUGHTON LAKE  FLURRIES  35  28  75 N8        29.88F WCI  29
MANISTEE       LGT SNOW  33  30  88 NE9       29.88S FOG     WCI  25
OSCODA         CLOUDY    35  31  83 N8        29.89F WCI  29
PELLSTON       CLOUDY    31  23  72 CALM      29.95R
ROGERS CITY    PTCLDY    32  23  69 NW7       29.95R WCI  26
TRAVERSE CITY  CLOUDY    36  27  69 NE9       29.92R WCI  29
$$
MIZ007>008-015-240400-
EASTERN UPPER MICHIGAN

CITY           SKY/WX    TMP DP  RH WIND       PRES   REMARKS
KINROSS        CLEAR     27  22  81 NW6       29.93R WCI  20
MACKINAC ISLAN MOCLDY    29  25  82 NW3       29.94R
NEWBERRY       CLOUDY    30  24  78 CALM      29.94R
S. S. MARIE    PTCLDY    32  21  64 NW7       29.92S WCI  26
MUNISING         N/A     33  24  69 N8        29.95R WCI  26
$$
MIZ004>006-011>014-085-240400-
CENTRAL UPPER MICHIGAN

CITY           SKY/WX    TMP DP  RH WIND       PRES   REMARKS
MANISTIQUE     CLOUDY    27  25  92 NW3       29.95R
ESCANABA       CLOUDY    33  24  69 N3        29.97R
MENOMINEE      CLOUDY    34  27  75 NE8       29.95R WCI  27
SAWYER-GWINN   CLOUDY    28  25  86 N6        29.94R WCI  22
$$
MIZ001>003-009>011-084-240400-
WESTERN UPPER MICHIGAN

CITY           SKY/WX    TMP DP  RH WIND       PRES   REMARKS
IRON MOUNTAIN  CLOUDY    32  23  69 N5        29.93R WCI  27
HOUGHTON       CLEAR     27  20  75 CALM      29.93S
COPPER HARBOR    N/A     33  21  61 N13       29.96R WCI  24
IRONWOOD       CLOUDY    27  25  92 NW6       29.96S WCI  20
$$

ABBREVIATIONS USED IN REMARKS
   TC - TEMPERATURE IN CELSIUS
  WCI - WIND CHILL INDEX
   HX - HEAT INDEX
  VSB - VISIBILITY





USA.gov is the U.S. government's official web portal to all federal, state and local government web resources and services.